Погода во Флеккефьорде

Норвегия     58°17′45″N   6°39′56″E
темп.,
°C
ветер,
м/с
пор.,
м/с
влажн.,
%
обл.,
%
осадки,
мм/ч
давл.,
гПа
погр.,
м
11 мая, вт
вт1123:00+7вюв229865 0.0 100794
02:00+7вюв2394100 0.0 1008191
05:00+7в129699 0.0 101091
08:00+9в1288100 0.0 1011236
11:00+13юв2368100 0.0 1011765
14:00+14ю3359100 0.0 10121031
17:00+15ююз215365 0.0 1012962
20:00+11юз2273100 0.0 1012192
12 мая, ср
ср1223:00+8св118670 0.0 101210
02:00+8св1188100 0.0 101113
05:00+7ссв1191100 0.0 101110
08:00+10зсз0175100 0.0 1010141
11:00+14зюз2258100 0.0 1009668
14:00+16зюз435075 0.0 10081251
17:00+15зюз565395 0.0 1008665
20:00+12з386246 0.0 1008365
13 мая, чт
чт1323:00+8сз1183100 0.0 100924
02:00+8ссз118097 0.0 100915
05:00+8ссв1180100 0.0 100911
08:00+11в116685 0.0 1009154
11:00+16ююз214899 0.0 1008854
14:00+17юз3347100 0.0 10071117
17:00+16юз334869 0.0 1006509
20:00+14ююв22605 0.0 1006255
14 мая, пт
пт1423:00+11вюв1171100 0.0 100612
02:00+11св0068100 0.0 100611
05:00+10св1188100 1.5 100523
08:00+12в3886100 3.6 1006642
11:00+14в586566 0.0 10061019
14:00+15в4561100 0.0 10071278
17:00+14зюз026390 0.0 1007396
20:00+12зюз127193 0.0 1007303
15 мая, сб
сб1523:00+10сз118694 0.0 100812
02:00+10с118793 0.1 100723
05:00+10ссз1188100 0.0 100610
08:00+11зюз1183100 0.0 100621
11:00+11зюз1183100 0.0 1007124
14:00+12зюз2377100 0.0 1007406
17:00+13зюз556362 0.0 1007759
20:00+10з357435 0.0 1007455